Tracking 28790 objects as of 19-Apr-2024
HD Live streaming from Space Station
objects crossing your sky now

AEHF 5 (USA 292)

Track AEHF 5 (USA 292) now!


NORAD ID: 44481
Int'l Code: 2019-051A
Perigee: 35,590.1 km
Apogee: 35,996.1 km
Inclination: 2.8 °
Period: 1,436.1 minutes
Semi major axis: 42164 km
RCS: Unknown
Launch date: August 8, 2019
Source: United States (US)
Launch site: AIR FORCE EASTERN TEST RANGE (AFETR)
Your satellite tracking list
Your tracking list is empty




NASA's NSSDC Master Catalog

Two Line Element Set (TLE):
1 44481U 19051A   24109.83136251  .00000075  00000-0  00000-0 0  9994
2 44481   2.8379 307.0780 0048152   4.0094 250.1197  1.00274089 17345
Source of the keplerian elements: AFSPC